Weather History for Tri-Cities, TN

Change the Weather History Date:

Tuesday, February 5, 2013

  Actual Average Record
Temperature  
Mean Temperature 41 °F 37 °F  
Max Temperature 51 °F 47 °F 71 °F (2008)
Min Temperature 30 °F 26 °F -15 °F (1996)
Degree Days  
Heating Degree Days 24 28  
Month to date heating degree days 170 142  
Since 1 July heating degree days 2608 2796  
Cooling Degree Days 0 0  
Month to date cooling degree days 0 0  
Year to date cooling degree days 0 0  
Moisture  
Dew Point 32 °F    
Average Humidity 74    
Maximum Humidity 92    
Minimum Humidity 56    
Precipitation  
Precipitation T in 0.12 in 1.25 in (2010)
Month to date precipitation 0.32 0.62  
Year to date precipitation 10.31 3.99  
Snow  
Snow 0.00 in 0.20 in - ()
Month to date snowfall 3.1 0.7  
Since 1 July snowfall 7.2 8.1  
Snow Depth 0.00 in    
Sea Level Pressure  
Sea Level Pressure 29.95 in    
Wind  
Wind Speed 4 mph (SW)    
Max Wind Speed 16 mph    
Max Gust Speed 21 mph    
Visibility 10 miles    
Events Rain    
T = Trace of Precipitation, MM = Missing Value Source: NWS Daily Summary

Daily Weather History Graph

Daily Weather History Graph

Search for Another Location

Airport:

Trip Planner

Search our weather history database for the weather conditions in past years. The results will help you decide how hot, cold, wet, or windy it might be!

Date:

Astronomy

Feb. 05, 2013 Rise Set
Actual Time 7:27 AM EST 6:00 PM EST
Civil Twilight 7:00 AM EST 6:27 PM EST
Nautical Twilight 6:29 AM EST 6:57 PM EST
Astronomical Twilight 5:59 AM EST 7:28 PM EST
Moon 3:05 AM EST (2/5) 1:19 PM EST (2/5)
Length of Visible Light 11h 26m
Length of Day
10h 32m
Waning Crescent, 27% of the Moon is Illuminated
Feb 5
Waning Crescent
Feb 10
New
Feb 17
First Quarter
Feb 25
Full
Mar 4
Last Quarter

Hourly Weather History & Observations

Time (EST) Temp. Windchill Dew Point Humidity Pressure Visibility Wind Dir Wind Speed Gust Speed Precip Events Conditions
12:53 AM 33.1 °F - 26.1 °F 75% 29.94 in 10.0 mi Calm Calm - N/A   Overcast
1:53 AM 33.1 °F - 27.0 °F 78% 29.94 in 10.0 mi Calm Calm - N/A   Overcast
2:53 AM 33.1 °F - 28.0 °F 82% 29.93 in 10.0 mi Calm Calm - N/A   Overcast
3:53 AM 34.0 °F - 27.0 °F 75% 29.94 in 9.0 mi Calm Calm - 0.00 in Rain Light Rain
4:53 AM 33.1 °F - 28.9 °F 85% 29.94 in 10.0 mi Calm Calm - 0.00 in   Overcast
5:53 AM 34.0 °F - 30.0 °F 85% 29.93 in 10.0 mi Calm Calm - N/A   Overcast
6:53 AM 34.0 °F - 30.9 °F 89% 29.94 in 10.0 mi Calm Calm - N/A   Overcast
7:53 AM 34.0 °F - 30.9 °F 89% 29.95 in 10.0 mi Calm Calm - N/A   Overcast
8:53 AM 35.1 °F - 30.9 °F 85% 29.96 in 10.0 mi Calm Calm - N/A   Overcast
9:53 AM 39.9 °F 35.1 °F 32.0 °F 73% 29.97 in 10.0 mi SW 6.9 mph - N/A   Overcast
10:53 AM 42.1 °F 36.1 °F 34.0 °F 73% 29.98 in 10.0 mi WSW 10.4 mph - N/A   Overcast
11:53 AM 44.1 °F 37.1 °F 35.1 °F 71% 29.97 in 10.0 mi WSW 15.0 mph - N/A   Overcast
12:50 PM 44.6 °F 39.2 °F 35.6 °F 71% 29.97 in 10.0 mi WSW 10.4 mph - N/A   Overcast
12:53 PM 45.0 °F 40.1 °F 36.0 °F 71% 29.96 in 10.0 mi SW 9.2 mph - N/A   Overcast
1:31 PM 46.0 °F 39.9 °F 37.9 °F 73% 29.95 in 10.0 mi SW 13.8 mph - N/A   Mostly Cloudy
1:53 PM 46.0 °F 40.6 °F 37.0 °F 71% 29.93 in 10.0 mi SW 11.5 mph - N/A   Mostly Cloudy
2:23 PM 48.0 °F - 37.0 °F 66% 29.94 in 10.0 mi SW 11.5 mph 20.7 mph N/A   Overcast
2:53 PM 48.0 °F - 36.0 °F 63% 29.93 in 10.0 mi SW 11.5 mph - N/A   Mostly Cloudy
3:16 PM 48.9 °F - 36.0 °F 61% 29.94 in 10.0 mi West 6.9 mph - N/A   Mostly Cloudy
3:53 PM 48.9 °F - 36.0 °F 61% 29.93 in 10.0 mi SW 8.1 mph - N/A   Mostly Cloudy
4:53 PM 50.0 °F - 35.1 °F 57% 29.92 in 10.0 mi SW 9.2 mph - N/A   Mostly Cloudy
5:53 PM 45.0 °F 41.2 °F 35.1 °F 68% 29.92 in 10.0 mi SSW 6.9 mph - N/A   Scattered Clouds
6:53 PM 41.0 °F 38.0 °F 34.0 °F 76% 29.94 in 10.0 mi SW 4.6 mph - N/A   Scattered Clouds
7:53 PM 37.0 °F - 33.1 °F 86% 29.96 in 10.0 mi Calm Calm - N/A   Partly Cloudy
8:53 PM 35.1 °F - 30.9 °F 85% 29.96 in 10.0 mi Calm Calm - N/A   Clear
9:53 PM 33.1 °F - 30.9 °F 92% 29.97 in 10.0 mi Calm Calm - N/A   Clear
10:53 PM 30.9 °F 26.2 °F 28.9 °F 92% 29.99 in 8.0 mi North 4.6 mph - N/A   Clear
11:53 PM 30.9 °F - 28.9 °F 92% 29.99 in 6.0 mi Calm Calm - N/A   Clear